Terug naar catalogus

COSMOS 1275 DEB

ActiefPO
NORAD 42161·DEBRIS·🇷🇺 Russia

Gelanceerd Jun 4, 1981 vanaf Plesetsk Cosmodrome

Loading…

Volgende Passages (komende 24 uur)

TLE

VerouderendSource: Space-Track

Epoch: Sep 10, 2026, 14:59 UTC

1 42161U 81053RZ  26253.62462381  .00001521  00000-0  10473-2 0  9997
2 42161  82.9283  20.5871 0052205 137.1241 223.4017 13.98054525 67277

Volg COSMOS 1275 DEB in realtime met AllMySat

Download on the App Store